DLH02F EDDF-LEMD

Flight info

Callsign DLH02F
Flight time N/A
Altitude 35000
Route ANEKI2L/18 ANEKI Y163 HERBI Y164 MOPAN DCT LUTIX DCT BENOT DCT NEMOS DCT NINTU DCT MEBAK DCT REPSI DCT LERGA DCT MINSO DCT NARAK DCT AGN DCT MAQAB DCT TIVLI N869 ZAR Z245 TERSA
Aircraft A346/H-SDE2E3FGHIJ3J4J5M1RWXY/LB1D1

Departure

Time 2026-05-08 08:00
Airport Frankfurt Main Airport (EDDF)

Arrival

Time N/A
Airport Adolfo Suárez Madrid–Barajas Airport (LEMD)
Time Latitude Longitude Altitude Speed Heading
2026-05-08 07:11 50.04723 8.56277 370 ft 0 kts 340°
2026-05-08 07:46 50.04720 8.56278 364 ft 3 kts 340°
2026-05-08 07:46 50.04696 8.56292 367 ft 4 kts 342°
2026-05-08 07:46 50.04671 8.56304 368 ft 4 kts 336°
2026-05-08 07:46 50.04656 8.56321 368 ft 4 kts 309°
2026-05-08 07:47 50.04649 8.56344 366 ft 4 kts 268°
2026-05-08 07:47 50.04654 8.56382 366 ft 4 kts 251°
2026-05-08 07:47 50.04662 8.56416 369 ft 1 kts 249°
2026-05-08 07:51 50.04659 8.56403 370 ft 3 kts 249°
2026-05-08 07:51 50.04647 8.56354 370 ft 7 kts 249°
2026-05-08 07:52 50.04626 8.56264 364 ft 11 kts 249°
2026-05-08 07:52 50.04595 8.56135 368 ft 15 kts 249°
2026-05-08 07:52 50.04553 8.55993 369 ft 14 kts 227°
2026-05-08 07:52 50.04495 8.55944 371 ft 9 kts 201°
2026-05-08 07:53 50.04430 8.55915 370 ft 3 kts 188°
2026-05-08 07:53 50.04399 8.55914 369 ft 6 kts 178°
2026-05-08 07:53 50.04341 8.55933 367 ft 11 kts 162°
2026-05-08 07:53 50.04252 8.55942 366 ft 16 kts 206°
2026-05-08 07:54 50.04197 8.55774 363 ft 20 kts 253°
2026-05-08 07:54 50.04146 8.55552 364 ft 23 kts 249°
2026-05-08 07:54 50.04087 8.55302 368 ft 26 kts 250°
2026-05-08 07:54 50.04024 8.55034 368 ft 28 kts 250°
2026-05-08 07:55 50.03952 8.54735 363 ft 30 kts 249°
2026-05-08 07:55 50.03875 8.54419 362 ft 32 kts 244°
2026-05-08 07:55 50.03771 8.54104 358 ft 33 kts 250°
2026-05-08 07:55 50.03690 8.53755 361 ft 35 kts 249°
2026-05-08 07:56 50.03611 8.53445 354 ft 31 kts 249°
2026-05-08 07:56 50.03543 8.53159 354 ft 19 kts 249°
2026-05-08 07:56 50.03497 8.52969 351 ft 14 kts 249°
2026-05-08 07:56 50.03467 8.52856 353 ft 0 kts 246°
2026-05-08 07:57 50.03463 8.52843 353 ft 0 kts 246°
2026-05-08 07:57 50.03459 8.52827 353 ft 4 kts 246°
2026-05-08 07:57 50.03443 8.52770 352 ft 8 kts 247°
2026-05-08 07:57 50.03418 8.52672 349 ft 10 kts 248°
2026-05-08 07:58 50.03395 8.52622 355 ft 2 kts 219°
2026-05-08 07:58 50.03375 8.52595 354 ft 3 kts 209°
2026-05-08 07:58 50.03351 8.52595 352 ft 0 kts 180°
2026-05-08 07:59 50.03228 8.52595 348 ft 59 kts 180°
2026-05-08 07:59 50.02475 8.52603 344 ft 153 kts 179°
2026-05-08 08:00 50.01219 8.52612 757 ft 193 kts 177°
2026-05-08 08:00 49.99836 8.52634 1735 ft 204 kts 177°
2026-05-08 08:00 49.98387 8.52666 2829 ft 211 kts 177°
2026-05-08 08:00 49.96927 8.52738 3815 ft 213 kts 176°
2026-05-08 08:01 49.95389 8.52886 4506 ft 229 kts 176°
2026-05-08 08:01 49.93758 8.53038 5357 ft 239 kts 177°
2026-05-08 08:01 49.92096 8.53178 6492 ft 239 kts 178°
2026-05-08 08:01 49.90431 8.53309 7585 ft 240 kts 179°
2026-05-08 08:02 49.88754 8.53433 8611 ft 243 kts 179°
2026-05-08 08:02 49.87053 8.53546 9656 ft 246 kts 179°
2026-05-08 08:02 49.85329 8.53658 10597 ft 251 kts 179°
2026-05-08 08:02 49.83590 8.53775 11492 ft 255 kts 179°
2026-05-08 08:03 49.81798 8.53899 12423 ft 259 kts 179°
2026-05-08 08:03 49.79976 8.54022 13379 ft 264 kts 179°
2026-05-08 08:03 49.78129 8.54079 14286 ft 267 kts 184°
2026-05-08 08:03 49.76246 8.53904 15009 ft 277 kts 187°
2026-05-08 08:04 49.74260 8.53643 15547 ft 295 kts 187°
2026-05-08 08:04 49.72150 8.53355 16058 ft 313 kts 187°
2026-05-08 08:04 49.69914 8.53051 16562 ft 331 kts 187°
2026-05-08 08:04 49.67525 8.52730 17034 ft 350 kts 187°
2026-05-08 08:05 49.65033 8.52397 17464 ft 368 kts 187°
2026-05-08 08:05 49.62447 8.52055 17893 ft 386 kts 187°
2026-05-08 08:05 49.59707 8.51691 18291 ft 404 kts 187°
2026-05-08 08:05 49.56861 8.51316 18812 ft 415 kts 187°
2026-05-08 08:06 49.53951 8.50934 19568 ft 419 kts 187°
2026-05-08 08:06 49.51026 8.50552 20363 ft 423 kts 187°
2026-05-08 08:06 49.48088 8.50168 21122 ft 427 kts 187°
2026-05-08 08:06 49.45098 8.49777 21860 ft 432 kts 187°
2026-05-08 08:07 49.42081 8.49383 22594 ft 436 kts 187°
2026-05-08 08:07 49.39040 8.48986 23361 ft 440 kts 187°
2026-05-08 08:07 49.35961 8.48585 24033 ft 444 kts 187°
2026-05-08 08:07 49.32866 8.48182 24637 ft 448 kts 187°
2026-05-08 08:08 49.29795 8.47783 25240 ft 451 kts 187°
2026-05-08 08:08 49.26654 8.47375 25852 ft 454 kts 187°
2026-05-08 08:08 49.23452 8.46958 26486 ft 457 kts 187°
2026-05-08 08:08 49.20307 8.46549 27054 ft 460 kts 187°
2026-05-08 08:09 49.17108 8.46133 27690 ft 463 kts 187°
2026-05-08 08:09 49.13890 8.45717 28356 ft 464 kts 187°
2026-05-08 08:09 49.10682 8.45303 29237 ft 461 kts 187°
2026-05-08 08:09 49.07510 8.44769 30195 ft 456 kts 190°
2026-05-08 08:10 49.04385 8.43999 30982 ft 452 kts 193°
2026-05-08 08:10 49.01321 8.42994 31753 ft 448 kts 195°
2026-05-08 08:10 48.98286 8.41928 32484 ft 446 kts 194°
2026-05-08 08:10 48.95266 8.40879 33215 ft 444 kts 194°
2026-05-08 08:11 48.92250 8.39836 33920 ft 443 kts 194°
2026-05-08 08:11 48.89241 8.38796 34436 ft 444 kts 194°
2026-05-08 08:11 48.86214 8.37750 34848 ft 447 kts 194°
2026-05-08 08:11 48.83170 8.36698 35085 ft 451 kts 194°
2026-05-08 08:12 48.80137 8.35649 35097 ft 452 kts 194°
2026-05-08 08:12 48.74005 8.33452 35101 ft 454 kts 195°
2026-05-08 08:13 48.67866 8.31200 35103 ft 454 kts 195°
2026-05-08 08:13 48.61717 8.28955 35099 ft 454 kts 195°
2026-05-08 08:14 48.55571 8.26720 35091 ft 454 kts 195°
2026-05-08 08:14 48.49427 8.24494 35087 ft 454 kts 195°
2026-05-08 08:15 48.43328 8.22270 35094 ft 454 kts 195°
2026-05-08 08:15 48.37176 8.20022 35094 ft 454 kts 195°
2026-05-08 08:16 48.31028 8.17781 35090 ft 454 kts 195°
2026-05-08 08:16 48.25017 8.15071 35091 ft 453 kts 201°
2026-05-08 08:17 48.19196 8.11433 35088 ft 453 kts 206°
2026-05-08 08:17 48.13540 8.07245 35082 ft 453 kts 207°
2026-05-08 08:18 48.07875 8.03075 35076 ft 453 kts 207°
2026-05-08 08:18 48.02255 7.98944 35076 ft 453 kts 207°
2026-05-08 08:19 47.96595 7.94790 35076 ft 453 kts 207°
2026-05-08 08:19 47.90936 7.90650 35075 ft 452 kts 207°
2026-05-08 08:20 47.85280 7.86518 35070 ft 452 kts 207°
2026-05-08 08:20 47.79611 7.82385 35075 ft 452 kts 207°
2026-05-08 08:21 47.73940 7.78264 35071 ft 452 kts 207°
2026-05-08 08:21 47.68333 7.74200 35077 ft 451 kts 207°
2026-05-08 08:22 47.62689 7.70115 35082 ft 451 kts 207°
2026-05-08 08:22 47.57039 7.66037 35086 ft 451 kts 207°
2026-05-08 08:23 47.51397 7.61979 35081 ft 449 kts 207°
2026-05-08 08:23 47.45789 7.57949 35081 ft 448 kts 207°
2026-05-08 08:24 47.40174 7.53924 35079 ft 448 kts 207°
2026-05-08 08:24 47.34604 7.49940 35075 ft 448 kts 207°
2026-05-08 08:25 47.28981 7.45931 35080 ft 448 kts 207°
2026-05-08 08:25 47.23411 7.41800 35083 ft 448 kts 211°
2026-05-08 08:26 47.18216 7.36785 35084 ft 447 kts 218°
2026-05-08 08:26 47.13520 7.30816 35085 ft 445 kts 225°
2026-05-08 08:27 47.09407 7.24020 35064 ft 444 kts 231°
2026-05-08 08:27 47.05548 7.16897 35076 ft 445 kts 232°
2026-05-08 08:28 47.01709 7.09848 35079 ft 445 kts 231°
2026-05-08 08:28 46.97836 7.02768 35082 ft 445 kts 231°
2026-05-08 08:29 46.93958 6.95700 35089 ft 443 kts 231°
2026-05-08 08:29 46.90097 6.88679 35087 ft 446 kts 231°
2026-05-08 08:30 46.86146 6.81525 35082 ft 446 kts 231°
2026-05-08 08:30 46.80280 6.70943 35082 ft 446 kts 231°
2026-05-08 08:31 46.76365 6.63901 35065 ft 445 kts 231°
2026-05-08 08:31 46.72496 6.56960 35072 ft 443 kts 231°
2026-05-08 08:32 46.68596 6.49978 35065 ft 443 kts 231°
2026-05-08 08:32 46.64678 6.42981 35063 ft 447 kts 231°
2026-05-08 08:33 46.60734 6.35958 35063 ft 447 kts 231°
2026-05-08 08:33 46.56813 6.28993 35053 ft 447 kts 231°
2026-05-08 08:34 46.53504 6.23129 35057 ft 447 kts 231°
2026-05-08 08:34 46.48910 6.15009 35057 ft 447 kts 231°
2026-05-08 08:35 46.45618 6.09205 35048 ft 447 kts 231°
2026-05-08 08:35 46.41653 6.02230 35060 ft 448 kts 231°
2026-05-08 08:36 46.37676 5.95251 35075 ft 448 kts 231°
2026-05-08 08:36 46.33696 5.88283 35071 ft 448 kts 231°
2026-05-08 08:37 46.29740 5.81374 35066 ft 448 kts 231°
2026-05-08 08:37 46.25755 5.74433 35058 ft 448 kts 231°
2026-05-08 08:38 46.21769 5.67508 35043 ft 448 kts 231°
2026-05-08 08:38 46.17776 5.60591 35042 ft 447 kts 231°
2026-05-08 08:39 46.13898 5.53545 35046 ft 449 kts 234°
2026-05-08 08:39 46.10335 5.46139 35045 ft 449 kts 236°
2026-05-08 08:40 46.06769 5.38717 35042 ft 449 kts 236°
2026-05-08 08:40 46.03227 5.31364 35040 ft 449 kts 236°
2026-05-08 08:41 45.99667 5.23989 35045 ft 449 kts 236°
2026-05-08 08:41 45.96092 5.16601 35050 ft 449 kts 236°
2026-05-08 08:42 45.92524 5.09258 35054 ft 450 kts 236°
2026-05-08 08:42 45.88932 5.01870 35055 ft 450 kts 236°
2026-05-08 08:43 45.85327 4.94478 35046 ft 450 kts 236°
2026-05-08 08:43 45.81722 4.87105 35055 ft 450 kts 236°
2026-05-08 08:44 45.78138 4.79793 35057 ft 450 kts 236°
2026-05-08 08:44 45.74529 4.72451 35055 ft 450 kts 236°
2026-05-08 08:45 45.70903 4.65112 35038 ft 451 kts 237°
2026-05-08 08:45 45.67264 4.57739 35040 ft 452 kts 237°
2026-05-08 08:46 45.63645 4.50425 35049 ft 452 kts 237°
2026-05-08 08:46 45.60003 4.43084 35055 ft 452 kts 237°
2026-05-08 08:47 45.56436 4.35929 35097 ft 412 kts 237°
2026-05-08 08:47 45.54826 4.32712 35034 ft 383 kts 237°
2026-05-08 08:47 45.53351 4.29764 35032 ft 356 kts 237°
2026-05-08 08:48 45.51946 4.26961 35031 ft 340 kts 238°
2026-05-08 08:48 45.50577 4.24229 35048 ft 337 kts 238°
2026-05-08 08:48 45.47779 4.18623 35006 ft 361 kts 238°
2026-05-08 08:49 45.46292 4.15648 35042 ft 375 kts 238°
2026-05-08 08:49 45.44742 4.12555 35052 ft 390 kts 238°
2026-05-08 08:49 45.43130 4.09348 35053 ft 405 kts 238°
2026-05-08 08:49 45.41457 4.06027 35052 ft 419 kts 238°
2026-05-08 08:50 45.39727 4.02595 35048 ft 433 kts 237°
2026-05-08 08:50 45.37950 3.99079 35046 ft 445 kts 237°
2026-05-08 08:50 45.34281 3.91841 35039 ft 451 kts 237°
2026-05-08 08:51 45.30609 3.84616 35022 ft 451 kts 238°
2026-05-08 08:51 45.26918 3.77370 35037 ft 451 kts 238°
2026-05-08 08:52 45.23301 3.70144 35025 ft 450 kts 239°
2026-05-08 08:52 45.19716 3.62834 35021 ft 450 kts 239°
2026-05-08 08:53 45.16122 3.55535 35019 ft 450 kts 239°
2026-05-08 08:53 45.12520 3.48253 35002 ft 450 kts 239°
2026-05-08 08:54 45.08950 3.41059 35027 ft 448 kts 239°
2026-05-08 08:54 45.05351 3.33820 35014 ft 449 kts 239°
2026-05-08 08:55 45.01752 3.26603 35030 ft 449 kts 239°
2026-05-08 08:55 44.98146 3.19389 35026 ft 449 kts 239°
2026-05-08 08:56 44.94560 3.12236 35014 ft 448 kts 239°
2026-05-08 08:56 44.90956 3.05063 35016 ft 447 kts 239°
2026-05-08 08:57 44.87349 2.97915 35022 ft 446 kts 239°
2026-05-08 08:57 44.83821 2.90706 35023 ft 445 kts 242°
2026-05-08 08:58 44.80457 2.83394 35020 ft 445 kts 242°
2026-05-08 08:58 44.77071 2.76056 35025 ft 445 kts 242°
2026-05-08 08:59 44.73712 2.68795 35021 ft 445 kts 242°
2026-05-08 08:59 44.70329 2.61504 35018 ft 444 kts 242°
2026-05-08 09:00 44.66944 2.54216 35023 ft 444 kts 242°
2026-05-08 09:00 44.63558 2.46945 35020 ft 444 kts 242°
2026-05-08 09:01 44.60170 2.39688 35021 ft 444 kts 242°
2026-05-08 09:01 44.56801 2.32493 35017 ft 442 kts 242°
2026-05-08 09:02 44.53427 2.25305 35014 ft 440 kts 241°
2026-05-08 09:02 44.50057 2.18142 35016 ft 439 kts 241°
2026-05-08 09:03 44.46686 2.10997 35008 ft 439 kts 241°
2026-05-08 09:03 44.43315 2.03869 35008 ft 439 kts 241°
2026-05-08 09:04 44.39931 1.96728 34965 ft 439 kts 241°
2026-05-08 09:04 44.36564 1.89636 34981 ft 436 kts 240°
2026-05-08 09:05 44.33196 1.82567 34993 ft 436 kts 240°
2026-05-08 09:05 44.29843 1.75557 34979 ft 436 kts 240°
2026-05-08 09:06 44.26541 1.68439 34981 ft 435 kts 241°
2026-05-08 09:06 44.23274 1.61296 34982 ft 435 kts 241°
2026-05-08 09:07 44.20004 1.54173 34977 ft 435 kts 240°
2026-05-08 09:07 44.16754 1.47120 34974 ft 435 kts 240°
2026-05-08 09:08 44.13470 1.40032 34970 ft 435 kts 240°
2026-05-08 09:08 44.10179 1.32945 34970 ft 435 kts 240°
2026-05-08 09:09 44.06888 1.25870 34971 ft 435 kts 240°
2026-05-08 09:09 44.03590 1.18798 34973 ft 435 kts 240°
2026-05-08 09:10 44.00315 1.11777 34956 ft 434 kts 239°
2026-05-08 09:10 43.97016 1.04746 34959 ft 434 kts 239°
2026-05-08 09:11 43.93715 0.97730 34964 ft 434 kts 239°
2026-05-08 09:11 43.90223 0.90877 34958 ft 435 kts 234°
2026-05-08 09:12 43.86244 0.84519 34958 ft 437 kts 229°
2026-05-08 09:12 43.81810 0.78704 34944 ft 438 kts 224°
2026-05-08 09:13 43.77298 0.73105 34955 ft 437 kts 224°
2026-05-08 09:13 43.72745 0.67492 34953 ft 437 kts 224°
2026-05-08 09:14 43.68196 0.61900 34953 ft 437 kts 224°
2026-05-08 09:14 43.63671 0.56347 34948 ft 437 kts 224°
2026-05-08 09:15 43.59126 0.50776 34947 ft 436 kts 223°
2026-05-08 09:15 43.54590 0.45233 34944 ft 435 kts 223°
2026-05-08 09:16 43.50041 0.39682 34943 ft 435 kts 223°
2026-05-08 09:16 43.45482 0.34125 34943 ft 436 kts 223°
2026-05-08 09:17 43.40934 0.28602 34935 ft 435 kts 222°
2026-05-08 09:17 43.36391 0.23106 34938 ft 434 kts 222°
2026-05-08 09:18 43.31877 0.17657 34935 ft 434 kts 222°
2026-05-08 09:18 43.27338 0.12184 34935 ft 434 kts 222°
2026-05-08 09:19 43.22792 0.06714 34928 ft 434 kts 222°
2026-05-08 09:19 43.18250 0.01257 34943 ft 433 kts 222°